| time (UTC) | temp F | wind direction | speed knots | gust knots | rain 1hr in | rain 24hr in | rain mn in | humidity % | barometer mb |
| 20260507151003 | 60 | 277 | 6.1 | 13.0 | 0.00 | 0.59 | 0.52 | 70 | 1008.3 |
| 20260507150003 | 60 | 58 | 4.3 | 13.9 | 0.00 | 0.59 | 0.52 | 73 | 1008.0 |
| 20260507145003 | 59 | 310 | 5.2 | 13.9 | 0.00 | 0.59 | 0.52 | 76 | 1008.0 |
| 20260507144003 | 58 | 341 | 7.0 | 13.0 | 0.00 | 0.59 | 0.52 | 73 | 1008.3 |
| 20260507143003 | 57 | 25 | 6.1 | 13.0 | 0.00 | 0.59 | 0.52 | 77 | 1008.0 |
| 20260507142003 | 56 | 270 | 6.1 | 11.3 | 0.00 | 0.59 | 0.52 | 85 | 1008.0 |
| 20260507141003 | 56 | 308 | 3.5 | 11.3 | 0.00 | 0.59 | 0.52 | 85 | 1008.4 |
| 20260507140003 | 55 | 271 | 6.1 | 10.4 | 0.01 | 0.59 | 0.52 | 86 | 1008.4 |
| 20260507135003 | 54 | 309 | 3.5 | 8.7 | 0.01 | 0.59 | 0.52 | 87 | 1008.5 |
| 20260507134003 | 52 | 310 | 4.3 | 9.6 | 0.01 | 0.59 | 0.52 | 88 | 1008.3 |
| 20260507133004 | 52 | 326 | 7.8 | 10.4 | 0.01 | 0.59 | 0.52 | 87 | 1008.5 |
| 20260507132003 | 52 | 354 | 4.3 | 10.4 | 0.02 | 0.59 | 0.51 | 87 | 1008.4 |
| 20260507131003 | 52 | 332 | 4.3 | 7.8 | 0.03 | 0.59 | 0.51 | 91 | 1008.3 |
| 20260507130003 | 51 | 345 | 5.2 | 7.8 | 0.03 | 0.59 | 0.51 | 90 | 1008.5 |
| 20260507125003 | 51 | 359 | 4.3 | 10.4 | 0.04 | 0.59 | 0.51 | 91 | 1008.2 |
| 20260507124003 | 50 | 10 | 5.2 | 10.4 | 0.04 | 0.58 | 0.50 | 93 | 1008.4 |
| 20260507123003 | 50 | 320 | 5.2 | 10.4 | 0.04 | 0.58 | 0.50 | 94 | 1008.7 |
| 20260507122024 | 49 | 303 | 4.3 | 7.0 | 0.05 | 0.57 | 0.50 | 94 | 1008.6 |
| 20260507121003 | 49 | 326 | 5.2 | 10.4 | 0.05 | 0.56 | 0.48 | 94 | 1008.5 |
| 20260507120004 | 49 | 5 | 2.6 | 10.4 | 0.05 | 0.55 | 0.48 | 94 | 1008.4 |
| 20260507115003 | 49 | 4 | 5.2 | 10.4 | 0.05 | 0.55 | 0.47 | 93 | 1008.5 |
| 20260507114024 | 49 | 17 | 3.5 | 11.3 | 0.05 | 0.55 | 0.47 | 93 | 1008.3 |
| 20260507113005 | 49 | 66 | 3.5 | 15.6 | 0.05 | 0.54 | 0.46 | 92 | 1008.5 |
| 20260507112003 | 49 | 331 | 7.8 | 20.0 | 0.04 | 0.52 | 0.44 | 92 | 1008.8 |
| 20260507111003 | 50 | 336 | 8.7 | 20.0 | 0.03 | 0.51 | 0.43 | 92 | 1008.5 |
| 20260507110003 | 50 | 6 | 11.3 | 16.5 | 0.04 | 0.50 | 0.42 | 93 | 1007.3 |
| 20260507105003 | 50 | 360 | 9.6 | 12.2 | 0.04 | 0.50 | 0.42 | 96 | 1007.4 |
| 20260507104003 | 51 | 286 | 4.3 | 11.3 | 0.04 | 0.50 | 0.42 | 96 | 1007.7 |
| 20260507103003 | 51 | 328 | 6.1 | 11.3 | 0.04 | 0.48 | 0.41 | 96 | 1007.7 |
| 20260507102003 | 51 | 345 | 6.1 | 15.6 | 0.06 | 0.48 | 0.41 | 96 | 1007.2 |
| 20260507101003 | 51 | 357 | 6.1 | 20.0 | 0.07 | 0.48 | 0.40 | 95 | 1007.5 |
| 20260507100003 | 51 | 353 | 10.4 | 20.0 | 0.08 | 0.46 | 0.39 | 93 | 1007.0 |
| 20260507095003 | 52 | 326 | 15.6 | 20.0 | 0.09 | 0.46 | 0.38 | 94 | 1007.3 |
| 20260507094004 | 52 | 352 | 7.8 | 16.5 | 0.10 | 0.45 | 0.37 | 95 | 1006.9 |
| 20260507093024 | 53 | 6 | 5.2 | 16.5 | 0.12 | 0.45 | 0.37 | 95 | 1007.0 |
| 20260507092003 | 53 | 346 | 7.0 | 13.0 | 0.15 | 0.42 | 0.35 | 95 | 1007.4 |
| 20260507091003 | 53 | 19 | 6.1 | 13.0 | 0.26 | 0.41 | 0.33 | 96 | 1007.1 |
| 20260507090003 | 54 | 317 | 7.8 | 10.4 | 0.29 | 0.39 | 0.31 | 96 | 1007.1 |
| 20260507085003 | 54 | 297 | 4.3 | 13.0 | 0.27 | 0.36 | 0.28 | 97 | 1006.8 |
| 20260507084003 | 55 | 286 | 4.3 | 13.0 | 0.26 | 0.35 | 0.28 | 98 | 1006.7 |
| 20260507083024 | 55 | 330 | 7.0 | 11.3 | 0.24 | 0.33 | 0.25 | 98 | 1006.6 |
| 20260507082003 | 55 | 263 | 5.2 | 10.4 | 0.18 | 0.27 | 0.19 | 97 | 1007.2 |
| 20260507081003 | 55 | 255 | 3.5 | 8.7 | 0.06 | 0.15 | 0.07 | 96 | 1006.5 |
| 20260507080004 | 55 | 268 | 1.7 | 2.6 | 0.00 | 0.09 | 0.02 | 95 | 1005.9 |
| 20260507075003 | 55 | 189 | 1.7 | 2.6 | 0.00 | 0.09 | 0.01 | 95 | 1006.0 |
| 20260507074003 | 55 | 194 | 1.7 | 2.6 | 0.00 | 0.09 | 0.01 | 95 | 1005.9 |
| 20260507073003 | 55 | 186 | 0.9 | 4.3 | 0.00 | 0.09 | 0.01 | 96 | 1006.0 |
| 20260507072003 | 55 | 151 | 0.9 | 5.2 | 0.00 | 0.09 | 0.01 | 96 | 1006.2 |
| 20260507071003 | 55 | 172 | 2.6 | 5.2 | 0.00 | 0.09 | 0.01 | 96 | 1006.1 |
| 20260507070004 | 55 | 173 | 3.5 | 4.3 | 0.00 | 0.09 | 0.01 | 96 | 1006.1 |
| 20260507065003 | 55 | 191 | 2.6 | 4.3 | 0.00 | 0.09 | 0.01 | 96 | 1006.3 |
| 20260507064024 | 55 | 206 | 1.7 | 4.3 | 0.00 | 0.09 | 0.01 | 96 | 1006.2 |
| 20260507063003 | 55 | 188 | 0.9 | 7.8 | 0.00 | 0.09 | 0.01 | 96 | 1006.3 |
| 20260507062003 | 55 | 138 | 1.7 | 7.8 | 0.00 | 0.09 | 0.01 | 96 | 1006.2 |
| 20260507061003 | 55 | 210 | 2.6 | 5.2 | 0.00 | 0.09 | 0.01 | 96 | 1006.7 |
| 20260507060003 | 55 | 191 | 1.7 | 5.2 | 0.01 | 0.09 | 0.01 | 96 | 1006.5 |
| 20260507055003 | 55 | 196 | 2.6 | 5.2 | 0.01 | 0.09 | 0.01 | 96 | 1006.8 |
| 20260507054003 | 55 | 206 | 2.6 | 6.1 | 0.01 | 0.09 | 0.01 | 96 | 1006.9 |
| 20260507053024 | 55 | 201 | 3.5 | 6.1 | 0.01 | 0.09 | 0.01 | 96 | 1007.0 |
| 20260507052003 | 55 | 194 | 3.5 | 6.1 | 0.01 | 0.09 | 0.01 | 96 | 1007.3 |
| 20260507051004 | 55 | 197 | 2.6 | 8.7 | 0.00 | 0.08 | 0.00 | 96 | 1007.3 |
| 20260507050003 | 55 | 214 | 4.3 | 8.7 | 0.00 | 0.08 | 0.00 | 96 | 1007.8 |
| 20260507045003 | 55 | 218 | 3.5 | 8.7 | 0.00 | 0.08 | 0.00 | 96 | 1007.4 |
| 20260507044003 | 55 | 224 | 4.3 | 7.8 | 0.00 | 0.08 | 0.00 | 96 | 1007.4 |
| 20260507043003 | 55 | 207 | 5.2 | 7.8 | 0.00 | 0.08 | 0.00 | 96 | 1007.3 |
| 20260507042003 | 55 | 205 | 3.5 | 11.3 | 0.00 | 0.08 | 0.00 | 96 | 1007.4 |
| 20260507041003 | 55 | 211 | 4.3 | 11.3 | 0.00 | 0.08 | 0.00 | 97 | 1007.4 |
| 20260507040004 | 55 | 219 | 6.1 | 11.3 | 0.00 | 0.08 | 0.00 | 97 | 1007.7 |
| 20260507035003 | 55 | 224 | 3.5 | 10.4 | 0.00 | 0.08 | 0.08 | 97 | 1007.9 |
| 20260507034004 | 55 | 222 | 5.2 | 12.2 | 0.00 | 0.08 | 0.08 | 97 | 1007.5 |
| 20260507033024 | 55 | 223 | 5.2 | 16.5 | 0.00 | 0.08 | 0.08 | 97 | 1007.9 |
| 20260507032003 | 55 | 240 | 7.8 | 16.5 | 0.00 | 0.08 | 0.08 | 97 | 1007.8 |
| 20260507031003 | 55 | 217 | 5.2 | 16.5 | 0.00 | 0.08 | 0.08 | 97 | 1007.5 |
| 20260507030003 | 55 | 213 | 7.8 | 16.5 | 0.00 | 0.08 | 0.08 | 97 | 1007.4 |
| 20260507025003 | 55 | 209 | 8.7 | 12.2 | 0.00 | 0.08 | 0.08 | 97 | 1007.5 |
| 20260507024003 | 55 | 218 | 7.0 | 14.8 | 0.00 | 0.08 | 0.08 | 97 | 1007.5 |
| 20260507023024 | 56 | 222 | 7.0 | 16.5 | 0.00 | 0.08 | 0.08 | 97 | 1007.7 |
| 20260507022003 | 56 | 213 | 8.7 | 16.5 | 0.00 | 0.08 | 0.08 | 97 | 1007.8 |
| 20260507021024 | 56 | 214 | 7.0 | 16.5 | 0.00 | 0.08 | 0.08 | 97 | 1007.9 |
| 20260507020003 | 56 | 219 | 8.7 | 16.5 | 0.00 | 0.08 | 0.08 | 97 | 1008.0 |
| 20260507015003 | 56 | 223 | 8.7 | 13.9 | 0.00 | 0.08 | 0.08 | 97 | 1008.3 |
| 20260507014003 | 56 | 221 | 7.0 | 16.5 | 0.00 | 0.08 | 0.08 | 97 | 1008.1 |
| 20260507013003 | 56 | 233 | 9.6 | 18.2 | 0.01 | 0.08 | 0.08 | 97 | 1008.5 |
| 20260507012003 | 56 | 231 | 9.6 | 18.2 | 0.01 | 0.08 | 0.08 | 97 | 1008.6 |
| 20260507011003 | 56 | 215 | 7.0 | 15.6 | 0.01 | 0.07 | 0.07 | 97 | 1008.5 |
| 20260507010004 | 56 | 226 | 8.7 | 20.0 | 0.01 | 0.07 | 0.07 | 97 | 1008.4 |
| 20260507005024 | 56 | 227 | 7.8 | 22.6 | 0.01 | 0.07 | 0.07 | 97 | 1008.4 |
| 20260507004003 | 56 | 231 | 9.6 | 22.6 | 0.02 | 0.07 | 0.07 | 97 | 1008.6 |
| 20260507003003 | 56 | 245 | 10.4 | 21.7 | 0.02 | 0.07 | 0.07 | 97 | 1008.4 |
| 20260507002003 | 56 | 231 | 7.8 | 16.5 | 0.02 | 0.07 | 0.07 | 97 | 1008.4 |
| 20260507001003 | 56 | 222 | 11.3 | 19.1 | 0.02 | 0.07 | 0.07 | 97 | 1008.5 |
| 20260507000003 | 56 | 231 | 12.2 | 21.7 | 0.03 | 0.07 | 0.07 | 97 | 1008.3 |
| 20260506235003 | 56 | 206 | 7.8 | 21.7 | 0.03 | 0.06 | 0.06 | 96 | 1008.4 |
| 20260506234003 | 56 | 207 | 10.4 | 18.2 | 0.04 | 0.06 | 0.06 | 96 | 1008.5 |
| 20260506233003 | 56 | 208 | 8.7 | 17.4 | 0.04 | 0.05 | 0.05 | 96 | 1008.3 |
| 20260506232003 | 56 | 218 | 9.6 | 22.6 | 0.04 | 0.05 | 0.05 | 96 | 1008.1 |
| 20260506231003 | 56 | 226 | 9.6 | 22.6 | 0.03 | 0.05 | 0.05 | 96 | 1008.1 |
| 20260506230003 | 56 | 198 | 11.3 | 23.5 | 0.03 | 0.04 | 0.04 | 95 | 1008.6 |
| 20260506225003 | 57 | 222 | 12.2 | 23.5 | 0.02 | 0.03 | 0.03 | 94 | 1008.6 |
| 20260506224003 | 57 | 224 | 9.6 | 20.9 | 0.02 | 0.02 | 0.02 | 93 | 1008.5 |
| 20260506223003 | 57 | 222 | 9.6 | 20.9 | 0.01 | 0.02 | 0.02 | 93 | 1008.6 |
| 20260506222003 | 57 | 227 | 10.4 | 21.7 | 0.01 | 0.02 | 0.02 | 91 | 1008.8 |
| 20260506221003 | 58 | 219 | 12.2 | 21.7 | 0.00 | 0.01 | 0.01 | 90 | 1008.9 |
| 20260506220003 | 59 | 226 | 9.6 | 18.2 | 0.00 | 0.01 | 0.01 | 88 | 1008.8 |
| 20260506215003 | 59 | 212 | 10.4 | 20.9 | 0.00 | 0.01 | 0.01 | 86 | 1008.9 |
| 20260506214024 | 59 | 219 | 10.4 | 20.9 | 0.01 | 0.01 | 0.01 | 85 | 1009.0 |
| 20260506213003 | 60 | 197 | 9.6 | 17.4 | 0.01 | 0.01 | 0.01 | 86 | 1009.1 |
| 20260506212003 | 60 | 215 | 8.7 | 17.4 | 0.01 | 0.01 | 0.01 | 85 | 1009.1 |
| 20260506211003 | 60 | 211 | 13.0 | 17.4 | 0.01 | 0.01 | 0.01 | 85 | 1009.2 |
| 20260506210003 | 60 | 201 | 12.2 | 18.2 | 0.00 | 0.00 | 0.00 | 83 | 1009.4 |
| 20260506205024 | 60 | 232 | 8.7 | 18.2 | 0.00 | 0.00 | 0.00 | 83 | 1009.3 |
| 20260506204003 | 61 | 243 | 9.6 | 22.6 | 0.00 | 0.00 | 0.00 | 82 | 1009.3 |
| 20260506203003 | 61 | 205 | 7.0 | 22.6 | 0.00 | 0.00 | 0.00 | 83 | 1009.5 |
| 20260506202003 | 61 | 226 | 10.4 | 18.2 | 0.00 | 0.00 | 0.00 | 81 | 1009.5 |
| 20260506201024 | 61 | 209 | 9.6 | 18.2 | 0.00 | 0.00 | 0.00 | 79 | 1009.4 |
| 20260506200003 | 61 | 215 | 7.8 | 17.4 | 0.00 | 0.00 | 0.00 | 80 | 1009.9 |
| 20260506195003 | 62 | 232 | 7.8 | 17.4 | 0.00 | 0.00 | 0.00 | 78 | 1009.9 |
| 20260506194003 | 62 | 235 | 8.7 | 17.4 | 0.00 | 0.00 | 0.00 | 77 | 1010.1 |
| 20260506193003 | 62 | 224 | 8.7 | 16.5 | 0.00 | 0.00 | 0.00 | 77 | 1010.2 |
| 20260506192003 | 62 | 205 | 7.8 | 16.5 | 0.00 | 0.00 | 0.00 | 78 | 1010.2 |
| 20260506191003 | 63 | 212 | 9.6 | 20.0 | 0.00 | 0.00 | 0.00 | 76 | 1010.2 |
| 20260506190024 | 63 | 228 | 7.8 | 24.3 | 0.00 | 0.00 | 0.00 | 76 | 1010.3 |
| 20260506185024 | 64 | 219 | 12.2 | 24.3 | 0.00 | 0.00 | 0.00 | 75 | 1010.2 |
| 20260506184003 | 64 | 219 | 9.6 | 23.5 | 0.00 | 0.00 | 0.00 | 75 | 1010.5 |
| 20260506183003 | 64 | 214 | 9.6 | 23.5 | 0.00 | 0.00 | 0.00 | 74 | 1010.6 |
| 20260506182003 | 64 | 222 | 7.0 | 23.5 | 0.00 | 0.00 | 0.00 | 75 | 1010.6 |
| 20260506181003 | 64 | 221 | 12.2 | 21.7 | 0.00 | 0.00 | 0.00 | 74 | 1011.0 |
| 20260506180004 | 65 | 225 | 12.2 | 29.5 | 0.00 | 0.00 | 0.00 | 73 | 1011.1 |
| 20260506175003 | 66 | 229 | 12.2 | 29.5 | 0.00 | 0.00 | 0.00 | 72 | 1011.3 |
| 20260506174003 | 67 | 233 | 12.2 | 23.5 | 0.00 | 0.00 | 0.00 | 71 | 1011.3 |
| 20260506173004 | 66 | 213 | 12.2 | 23.5 | 0.00 | 0.00 | 0.00 | 71 | 1011.5 |
| 20260506172003 | 67 | 219 | 11.3 | 16.5 | 0.00 | 0.00 | 0.00 | 72 | 1011.5 |
| 20260506171003 | 67 | 229 | 10.4 | 22.6 | 0.00 | 0.00 | 0.00 | 74 | 1011.5 |
| 20260506170003 | 65 | 235 | 8.7 | 24.3 | 0.00 | 0.00 | 0.00 | 74 | 1011.9 |
| 20260506165003 | 64 | 220 | 9.6 | 24.3 | 0.00 | 0.00 | 0.00 | 75 | 1012.0 |
| 20260506164003 | 65 | 217 | 11.3 | 22.6 | 0.00 | 0.00 | 0.00 | 74 | 1012.0 |
| 20260506163003 | 66 | 216 | 12.2 | 22.6 | 0.00 | 0.00 | 0.00 | 71 | 1012.1 |
| 20260506162003 | 67 | 233 | 11.3 | 21.7 | 0.00 | 0.00 | 0.00 | 71 | 1012.4 |
| 20260506161002 | 68 | 220 | 10.4 | 21.7 | 0.00 | 0.00 | 0.00 | 69 | 1012.4 |
| 20260506160003 | 67 | 214 | 10.4 | 26.1 | 0.00 | 0.00 | 0.00 | 70 | 1012.4 |
| 20260506155003 | 67 | 211 | 9.6 | 26.1 | 0.00 | 0.00 | 0.00 | 71 | 1012.6 |
| 20260506154002 | 66 | 230 | 9.6 | 24.3 | 0.00 | 0.00 | 0.00 | 71 | 1012.6 |
| 20260506153002 | 67 | 201 | 13.0 | 26.1 | 0.00 | 0.00 | 0.00 | 72 | 1012.8 |
| 20260506152003 | 67 | 214 | 13.9 | 26.9 | 0.00 | 0.00 | 0.00 | 71 | 1012.9 |